カタログに戻る

STARLINK-11630

運用中通信VLEO
NORAD 63111·PAYLOAD·🇺🇸 United States

打ち上げ Feb 27, 2025 から Cape Canaveral Space Force Station

Loading…

次のパス (今後24時間)

TLE

最新Source: CelesTrak SupGP

元期: Sep 15, 2026, 03:39 UTC

1 63111C 25039H   26258.15256944  .00016405  00000+0  12746-3 0  2586
2 63111  43.0008 175.1121 0001528 275.9436 308.2568 15.70821553    19

AllMySatでSTARLINK-11630をリアルタイム追跡

Download on the App Store